K5GLH Weather Reports


Display with metric or nautical units.
time (UTC)temp
F
wind
direction
speed
MPH
gust
MPH
rain 1hr
in
rain 24hr
in
rain mn
in
humidity
%
barometer
mb
20260509224028 84 357 4.0 8.0 0.00 0.16 0.02 40 1007.2
20260509223529 84 154 5.0 10.0 0.00 0.16 0.02 41 1007.3
20260509223029 84 357 3.0 10.0 0.00 0.16 0.02 42 1007.3
20260509222527 84 189 3.0 9.0 0.00 0.16 0.02 41 1007.4
20260509222029 84 193 5.0 9.0 0.00 0.16 0.02 40 1007.4
20260509221531 84 198 4.0 11.0 0.00 0.16 0.02 40 1007.3
20260509221027 84 357 4.0 10.0 0.00 0.16 0.02 39 1007.3
20260509220527 84 357 4.0 10.0 0.00 0.16 0.02 40 1007.4
20260509220026 84 357 5.0 10.0 0.00 0.16 0.02 39 1007.3
20260509215530 84 179 4.0 10.0 0.00 0.16 0.02 40 1007.4
20260509215027 84 185 2.0 8.0 0.00 0.16 0.02 41 1007.4
20260509214525 84 357 3.0 10.0 0.00 0.16 0.02 39 1007.4
20260509214025 84 200 5.0 10.0 0.00 0.16 0.02 39 1007.5
20260509213505 84 357 3.0 11.0 0.00 0.16 0.02 40 1007.5
20260509213005 84 357 5.0 11.0 0.00 0.16 0.02 40 1007.6
20260509212506 84 357 4.0 9.0 0.00 0.16 0.02 39 1007.6
20260509212004 84 181 3.0 8.0 0.00 0.16 0.02 39 1007.6
20260509211504 84 197 1.0 7.0 0.00 0.16 0.02 39 1007.8
20260509211003 84 127 3.0 7.0 0.00 0.16 0.02 39 1007.9
20260509210503 84 167 3.0 9.0 0.00 0.16 0.02 38 1007.9
20260509210003 84 209 4.0 9.0 0.00 0.16 0.02 39 1007.9
20260509205502 84 164 2.0 10.0 0.00 0.16 0.02 39 1007.9
20260509205005 84 357 2.0 10.0 0.00 0.16 0.02 38 1007.9
20260509204502 84 357 3.0 6.0 0.00 0.16 0.02 39 1008.0
20260509204101 84 60 1.0 8.0 0.00 0.16 0.02 36 1008.0
20260509203559 84 357 4.0 8.0 0.00 0.16 0.02 37 1008.0
20260509203101 84 123 1.0 9.0 0.00 0.16 0.02 37 1008.1
20260509202558 84 130 4.0 9.0 0.00 0.16 0.02 37 1008.1
20260509202057 84 179 3.0 9.0 0.00 0.16 0.02 38 1008.2
20260509201557 83 118 2.0 9.0 0.00 0.16 0.02 39 1008.4
20260509201055 83 357 4.0 9.0 0.00 0.16 0.02 38 1008.3
20260509200555 83 357 3.0 15.0 0.00 0.16 0.02 39 1008.6
20260509200055 83 145 3.0 15.0 0.00 0.16 0.02 39 1008.5
20260509195555 84 172 3.0 8.0 0.00 0.16 0.02 39 1008.6
20260509195054 84 357 2.0 7.0 0.00 0.16 0.02 34 1008.7
20260509194554 84 357 2.0 6.0 0.00 0.16 0.02 38 1008.7
20260509194052 83 357 1.0 5.0 0.00 0.16 0.02 37 1008.8
20260509193553 83 357 3.0 6.0 0.00 0.16 0.02 33 1008.7
20260509193050 82 220 2.0 6.0 0.00 0.16 0.02 32 1008.8
20260509192550 82 357 4.0 6.0 0.00 0.16 0.02 34 1008.9
20260509192049 82 131 1.0 6.0 0.00 0.16 0.02 31 1009.0
20260509191549 82 357 4.0 9.0 0.00 0.16 0.02 34 1009.1
20260509191049 82 357 3.0 6.0 0.00 0.16 0.02 34 1009.0
20260509190547 82 357 3.0 6.0 0.00 0.16 0.02 34 1009.1
20260509190052 82 266 2.0 7.0 0.00 0.16 0.02 31 1009.2
20260509185540 82 185 4.0 7.0 0.00 0.16 0.02 34 1009.2
20260509185039 81 130 3.0 8.0 0.00 0.16 0.02 34 1009.3
20260509184539 81 357 3.0 7.0 0.00 0.16 0.02 37 1009.5
20260509184037 81 183 3.0 6.0 0.00 0.16 0.02 38 1009.5
20260509183537 81 185 1.0 7.0 0.00 0.16 0.02 37 1009.5
20260509183038 81 185 2.0 9.0 0.00 0.16 0.02 38 1009.7
20260509182536 81 357 4.0 9.0 0.00 0.16 0.02 40 1009.6
20260509182035 80 357 2.0 11.0 0.00 0.16 0.02 40 1009.7
20260509181535 81 357 4.0 9.0 0.00 0.16 0.02 40 1009.8
20260509181035 81 357 2.0 8.0 0.00 0.16 0.02 43 1009.8
20260509180533 81 357 1.0 6.0 0.00 0.16 0.02 44 1009.9
20260509180033 80 167 2.0 6.0 0.00 0.16 0.02 44 1010.0
20260509175532 80 357 2.0 9.0 0.00 0.16 0.02 43 1010.1
20260509175036 80 123 4.0 9.0 0.00 0.16 0.02 43 1010.1
20260509174534 80 183 2.0 8.0 0.00 0.16 0.02 41 1010.2
20260509174033 80 357 2.0 8.0 0.00 0.16 0.02 44 1010.3
20260509173529 80 357 1.0 6.0 0.00 0.16 0.02 46 1010.4
20260509173028 79 131 2.0 6.0 0.00 0.16 0.02 43 1010.5
20260509172534 79 136 2.0 9.0 0.00 0.16 0.02 43 1010.6
20260509172027 79 178 3.0 9.0 0.00 0.16 0.02 47 1010.6
20260509171527 79 195 1.0 6.0 0.00 0.16 0.02 47 1010.6
20260509171026 78 357 3.0 8.0 0.00 0.16 0.02 50 1010.7
20260509170524 78 357 2.0 8.0 0.00 0.16 0.02 52 1010.8
20260509170024 78 187 2.0 5.0 0.00 0.16 0.02 50 1010.7
20260509165522 78 357 2.0 7.0 0.00 0.16 0.02 53 1010.9
20260509165023 78 357 2.0 7.0 0.01 0.16 0.02 54 1010.8
20260509164521 77 357 2.0 8.0 0.01 0.16 0.02 54 1010.9
20260509164021 77 357 4.0 8.0 0.01 0.16 0.02 51 1010.9
20260509163518 77 90 3.0 8.0 0.01 0.16 0.02 55 1010.8
20260509163022 76 133 2.0 8.0 0.01 0.16 0.02 54 1010.9
20260509162516 76 357 4.0 8.0 0.01 0.16 0.02 57 1010.9
20260509162017 75 208 3.0 10.0 0.01 0.16 0.02 63 1010.9
20260509161517 75 172 3.0 8.0 0.01 0.16 0.02 62 1010.9
20260509161013 74 357 3.0 7.0 0.01 0.16 0.02 65 1010.9
20260509160514 74 357 3.0 6.0 0.01 0.16 0.02 68 1010.9
20260509160013 74 111 3.0 9.0 0.01 0.16 0.02 71 1010.8
20260509155512 75 357 3.0 9.0 0.01 0.16 0.02 71 1010.9
20260509155012 75 134 3.0 9.0 0.00 0.15 0.01 69 1010.7
20260509154511 74 357 2.0 9.0 0.00 0.15 0.01 68 1010.8
20260509154012 74 357 3.0 8.0 0.00 0.15 0.01 67 1010.8
20260509153609 74 357 2.0 7.0 0.00 0.15 0.01 68 1010.7
20260509153017 74 357 3.0 8.0 0.00 0.15 0.01 69 1010.9
20260509152507 74 126 0.0 8.0 0.00 0.15 0.01 66 1010.9
20260509152008 74 357 4.0 6.0 0.00 0.15 0.01 64 1010.8
20260509151506 73 124 1.0 7.0 0.00 0.15 0.01 70 1010.8
20260509151004 73 141 3.0 7.0 0.00 0.15 0.01 70 1010.8
20260509150503 72 138 1.0 8.0 0.00 0.15 0.01 75 1010.6
20260509150004 72 357 4.0 8.0 0.00 0.15 0.01 74 1010.6
20260509145502 71 357 1.0 4.0 0.00 0.15 0.01 79 1010.6
20260509145100 70 112 0.0 4.0 0.00 0.15 0.01 79 1010.6
20260509144558 69 110 2.0 4.0 0.00 0.15 0.01 82 1010.6
20260509144059 68 357 2.0 4.0 0.00 0.15 0.01 85 1010.6
20260509143554 68 97 0.0 4.0 0.00 0.15 0.01 88 1010.7
20260509143055 67 98 0.0 4.0 0.00 0.15 0.01 90 1010.7
20260509142551 66 96 0.0 0.0 0.00 0.15 0.01 93 1010.7
20260509142050 65 357 0.0 0.0 0.00 0.15 0.01 94 1010.7
20260509141550 64 79 0.0 0.0 0.00 0.15 0.01 94 1010.6
20260509141049 63 357 0.0 0.0 0.00 0.15 0.01 94 1010.7
20260509140546 63 81 0.0 0.0 0.00 0.15 0.01 94 1010.7
20260509140049 62 77 0.0 0.0 0.00 0.15 0.01 95 1010.7
20260509135543 62 357 0.0 0.0 0.00 0.15 0.01 95 1010.7
20260509135043 61 357 0.0 0.0 0.00 0.15 0.01 94 1010.6
20260509134551 61 77 0.0 0.0 0.00 0.15 0.01 94 1010.6
20260509134042 61 79 0.0 0.0 0.00 0.15 0.01 94 1010.5
20260509133543 61 357 0.0 0.0 0.00 0.15 0.01 94 1010.4
20260509133054 60 357 0.0 0.0 0.00 0.15 0.01 94 1010.3
20260509132540 60 78 0.0 0.0 0.00 0.15 0.01 94 1010.3
20260509132041 60 357 0.0 0.0 0.00 0.15 0.01 94 1010.3
20260509131542 59 357 0.0 0.0 0.00 0.15 0.01 95 1010.3
20260509131043 59 357 0.0 0.0 0.00 0.15 0.01 95 1010.4
20260509130540 58 83 0.0 0.0 0.00 0.15 0.01 94 1010.3
20260509130043 58 357 0.0 0.0 0.00 0.15 0.01 94 1010.3
20260509125540 57 81 0.0 0.0 0.00 0.15 0.01 94 1010.2
20260509125039 57 81 0.0 0.0 0.00 0.15 0.01 94 1010.0
20260509124539 56 357 0.0 0.0 0.00 0.15 0.01 94 1009.9
20260509124039 56 79 0.0 0.0 0.00 0.15 0.01 94 1010.0
20260509123538 56 79 0.0 0.0 0.00 0.15 0.01 94 1010.0
20260509123038 55 80 0.0 0.0 0.00 0.15 0.01 94 1010.0
20260509122539 55 80 0.0 0.0 0.00 0.15 0.01 94 1010.0
20260509122040 55 79 0.0 0.0 0.00 0.15 0.01 93 1009.9
20260509121540 55 79 0.0 0.0 0.00 0.15 0.01 93 1009.8
20260509121039 55 79 0.0 0.0 0.00 0.15 0.01 93 1009.8
20260509120537 55 79 0.0 0.0 0.00 0.15 0.01 93 1009.9
20260509120037 55 357 0.0 0.0 0.00 0.15 0.01 93 1009.7
20260509115536 55 80 0.0 0.0 0.00 0.15 0.01 93 1009.8
20260509115038 55 79 0.0 0.0 0.00 0.15 0.01 93 1009.6
20260509114541 55 81 0.0 0.0 0.00 0.15 0.01 93 1009.4
20260509114036 55 357 0.0 0.0 0.00 0.15 0.01 93 1009.2
20260509113535 55 357 0.0 0.0 0.00 0.15 0.01 93 1009.1
20260509113034 55 79 0.0 0.0 0.00 0.15 0.01 93 1009.1
20260509112534 55 81 0.0 0.0 0.00 0.15 0.01 92 1009.0
20260509112033 55 80 0.0 0.0 0.00 0.15 0.01 92 1008.9
20260509111535 55 81 0.0 0.0 0.00 0.15 0.01 92 1008.9
20260509111033 55 357 0.0 0.0 0.00 0.15 0.01 92 1008.9
20260509110532 55 81 0.0 0.0 0.00 0.15 0.01 92 1009.0
20260509110031 56 82 0.0 0.0 0.00 0.15 0.01 92 1008.9
20260509105533 56 357 0.0 0.0 0.00 0.15 0.01 92 1008.7
20260509105030 56 357 0.0 0.0 0.00 0.15 0.01 92 1008.9
20260509104534 56 357 0.0 0.0 0.00 0.15 0.01 92 1008.8
20260509104031 56 80 0.0 0.0 0.00 0.15 0.01 92 1008.9
20260509103529 56 81 0.0 0.0 0.00 0.15 0.01 92 1008.9
20260509103029 56 81 0.0 0.0 0.00 0.15 0.01 92 1008.9
20260509102527 57 81 0.0 0.0 0.00 0.15 0.01 92 1009.1
20260509102026 57 81 0.0 0.0 0.00 0.15 0.01 92 1009.0
20260509101526 57 81 0.0 0.0 0.00 0.15 0.01 92 1009.2
20260509101025 57 81 0.0 0.0 0.00 0.15 0.01 92 1009.3
20260509100524 57 357 0.0 0.0 0.00 0.15 0.01 92 1009.3
20260509100026 57 357 0.0 0.0 0.00 0.15 0.01 92 1009.4
20260509095524 58 357 0.0 0.0 0.00 0.15 0.01 92 1009.5
20260509095022 58 80 0.0 0.0 0.00 0.15 0.01 92 1009.6
20260509094522 58 357 0.0 0.0 0.01 0.15 0.01 92 1009.6
20260509094022 58 357 0.0 0.0 0.01 0.15 0.01 92 1009.5
20260509093524 58 357 0.0 0.0 0.01 0.15 0.01 92 1009.5
20260509093022 58 357 0.0 0.0 0.01 0.15 0.01 92 1009.6
20260509092521 58 357 0.0 0.0 0.01 0.15 0.01 92 1009.4
20260509092021 58 81 0.0 0.0 0.01 0.15 0.01 92 1009.4
20260509091528 58 80 0.0 2.0 0.01 0.15 0.01 92 1009.4
20260509091021 58 357 0.0 2.0 0.01 0.15 0.01 92 1009.5
20260509090521 58 357 0.0 0.0 0.01 0.15 0.01 92 1009.5
20260509090023 58 357 0.0 0.0 0.01 0.15 0.01 92 1009.5
20260509085520 58 357 0.0 0.0 0.01 0.15 0.01 92 1009.4
20260509085020 58 80 0.0 0.0 0.01 0.15 0.01 92 1009.3
20260509084526 58 79 0.0 0.0 0.00 0.14 0.00 91 1009.2
20260509084020 58 79 0.0 0.0 0.00 0.14 0.00 91 1009.2
20260509083520 58 80 0.0 0.0 0.00 0.14 0.00 91 1009.2
20260509083017 58 80 0.0 0.0 0.00 0.14 0.00 91 1009.2
20260509082516 58 80 0.0 0.0 0.00 0.14 0.00 91 1009.2
20260509082016 58 80 0.0 0.0 0.00 0.14 0.00 91 1009.3
20260509081515 59 79 0.0 0.0 0.00 0.14 0.00 91 1009.4
20260509081014 59 79 0.0 0.0 0.00 0.14 0.00 91 1009.4
20260509080513 59 80 0.0 0.0 0.00 0.14 0.00 91 1009.6
20260509080022 59 79 0.0 0.0 0.00 0.14 0.00 91 1009.6
20260509075512 59 79 0.0 0.0 0.00 0.14 0.00 91 1009.7
20260509075015 59 79 0.0 0.0 0.00 0.14 0.00 91 1009.6
20260509074513 59 79 0.0 0.0 0.00 0.14 0.00 91 1009.8
20260509074010 59 80 0.0 0.0 0.00 0.14 0.00 91 1009.9
20260509073509 60 81 0.0 0.0 0.00 0.14 0.00 91 1009.9
20260509073023 60 357 0.0 0.0 0.00 0.14 0.00 91 1009.9
20260509072509 60 82 0.0 0.0 0.00 0.14 0.00 91 1009.9
20260509072009 60 357 0.0 0.0 0.00 0.14 0.00 91 1010.0
20260509071507 60 80 0.0 0.0 0.00 0.14 0.00 91 1009.9
20260509071007 60 83 0.0 2.0 0.00 0.14 0.00 91 1010.1
20260509070511 60 357 0.0 2.0 0.00 0.14 0.00 91 1010.1
20260509070007 60 81 0.0 3.0 0.00 0.14 0.00 91 1010.1
20260509065510 60 80 0.0 4.0 0.00 0.14 0.00 91 1010.1
20260509065005 60 357 0.0 4.0 0.00 0.14 0.00 90 1010.0
20260509064505 60 77 0.0 0.0 0.00 0.14 0.00 90 1009.9
20260509064007 60 77 0.0 0.0 0.00 0.14 0.00 90 1010.1
20260509063504 61 79 0.0 0.0 0.00 0.14 0.00 90 1010.3
20260509063003 61 78 0.0 0.0 0.00 0.14 0.00 90 1010.2
20260509062505 61 78 0.0 0.0 0.00 0.14 0.00 90 1010.2
20260509062001 61 79 0.0 0.0 0.00 0.14 0.00 90 1010.1
20260509061501 61 357 0.0 0.0 0.00 0.14 0.00 90 1010.2
20260509061003 61 79 0.0 0.0 0.00 0.14 0.00 90 1010.2
20260509060559 61 357 0.0 2.0 0.00 0.14 0.00 90 1010.3
20260509060100 61 78 0.0 4.0 0.00 0.14 0.00 90 1010.3
20260509055602 61 79 0.0 4.0 0.00 0.14 0.00 90 1010.4
20260509055059 61 357 2.0 4.0 0.00 0.14 0.00 90 1010.4
20260509054605 61 38 0.0 0.0 0.00 0.14 0.00 89 1010.5
20260509054058 61 37 0.0 0.0 0.00 0.14 0.00 89 1010.4
20260509053556 62 37 0.0 0.0 0.00 0.14 0.00 89 1010.2
20260509053055 62 357 0.0 1.0 0.00 0.14 0.00 89 1010.1
20260509052554 62 357 0.0 1.0 0.00 0.14 0.00 89 1010.0
20260509052053 62 35 0.0 3.0 0.00 0.14 0.00 89 1010.0
20260509051601 62 38 0.0 3.0 0.00 0.14 0.00 89 1010.0
20260509051053 62 36 0.0 3.0 0.00 0.14 0.00 89 1010.0
20260509050551 62 37 1.0 3.0 0.00 0.14 0.00 89 1009.9
20260509050050 62 357 0.0 3.0 0.00 0.14 0.00 89 1009.8
20260509045550 62 357 0.0 8.0 0.00 0.14 0.14 89 1009.8
20260509045050 62 357 1.0 8.0 0.00 0.14 0.14 90 1009.7
20260509044551 62 45 0.0 3.0 0.00 0.14 0.14 89 1009.7
20260509044051 62 43 0.0 5.0 0.00 0.14 0.14 89 1009.7
20260509043552 62 357 0.0 5.0 0.00 0.14 0.14 89 1009.7
20260509043056 62 54 0.0 4.0 0.00 0.14 0.14 89 1009.8
20260509042551 62 357 1.0 5.0 0.00 0.14 0.14 89 1009.7
20260509042049 62 357 1.0 5.0 0.00 0.14 0.14 89 1009.7
20260509041551 62 357 0.0 0.0 0.00 0.14 0.14 89 1009.7
20260509041051 62 132 0.0 2.0 0.00 0.14 0.14 89 1009.7
20260509040550 62 131 0.0 2.0 0.00 0.14 0.14 89 1009.7
20260509040100 62 133 0.0 3.0 0.00 0.14 0.14 89 1009.6
20260509035548 62 133 0.0 5.0 0.00 0.14 0.14 89 1009.6
20260509035048 62 357 3.0 5.0 0.00 0.14 0.14 89 1009.6
20260509034548 62 133 1.0 3.0 0.00 0.14 0.14 89 1009.6
20260509034047 62 357 0.0 1.0 0.00 0.14 0.14 89 1009.6
20260509033547 62 357 0.0 3.0 0.00 0.14 0.14 89 1009.4
20260509033047 62 357 1.0 4.0 0.00 0.14 0.14 89 1009.3
20260509032547 62 162 0.0 3.0 0.00 0.14 0.14 89 1009.0
20260509032048 62 162 0.0 4.0 0.00 0.14 0.14 88 1008.9
20260509031547 62 162 2.0 4.0 0.00 0.14 0.14 88 1008.8
20260509031047 62 162 0.0 0.0 0.00 0.14 0.14 88 1008.6
20260509030546 62 162 0.0 0.0 0.00 0.14 0.14 87 1008.5
20260509030046 62 162 0.0 0.0 0.00 0.14 0.14 87 1008.5
20260509025545 62 162 0.0 0.0 0.00 0.14 0.14 87 1008.4
20260509025046 63 162 0.0 3.0 0.00 0.14 0.14 86 1008.4
20260509024546 63 162 0.0 3.0 0.00 0.14 0.14 86 1008.3
20260509024043 63 357 1.0 3.0 0.00 0.14 0.14 86 1008.1
20260509023544 63 162 1.0 2.0 0.00 0.14 0.14 85 1007.8
20260509023043 63 162 1.0 3.0 0.00 0.14 0.14 84 1007.8
20260509022542 64 162 0.0 3.0 0.00 0.14 0.14 84 1007.6
20260509022042 64 357 0.0 3.0 0.00 0.14 0.14 84 1007.5
20260509021544 64 164 0.0 2.0 0.00 0.14 0.14 83 1007.6
20260509021043 64 163 0.0 3.0 0.00 0.14 0.14 83 1007.7
20260509020541 64 164 1.0 4.0 0.00 0.14 0.14 82 1007.7
20260509020044 64 357 2.0 5.0 0.00 0.14 0.14 82 1007.6
20260509015542 64 357 2.0 5.0 0.00 0.14 0.14 82 1007.5
20260509015042 64 168 3.0 5.0 0.00 0.14 0.14 82 1007.3
20260509014541 65 185 1.0 6.0 0.00 0.14 0.14 81 1007.4
20260509014044 65 166 3.0 6.0 0.00 0.14 0.14 81 1007.3
20260509013540 65 357 2.0 4.0 0.00 0.14 0.14 81 1007.3
20260509013048 65 357 1.0 4.0 0.00 0.14 0.14 81 1007.0
20260509012540 65 154 1.0 5.0 0.00 0.14 0.14 82 1006.7
20260509012041 65 153 0.0 2.0 0.00 0.14 0.14 82 1006.7
20260509011544 65 152 1.0 6.0 0.00 0.14 0.14 81 1006.8
20260509011039 65 153 2.0 6.0 0.00 0.14 0.14 81 1006.8
20260509010539 65 132 1.0 6.0 0.00 0.14 0.14 82 1006.6
20260509010041 65 357 2.0 6.0 0.00 0.14 0.14 82 1006.6
20260509005539 65 163 3.0 9.0 0.00 0.14 0.14 82 1006.6
20260509005039 65 357 3.0 9.0 0.00 0.14 0.14 82 1006.6
20260509004601 65 135 1.0 8.0 0.00 0.14 0.14 84 1006.5
20260509004040 65 133 4.0 8.0 0.00 0.14 0.14 84 1006.4
20260509003532 65 177 2.0 8.0 0.00 0.14 0.14 85 1006.2
20260509003040 65 216 2.0 9.0 0.00 0.14 0.14 86 1005.9
20260509002533 64 189 4.0 10.0 0.00 0.14 0.14 87 1005.8
20260509002031 64 357 2.0 7.0 0.00 0.14 0.14 88 1005.7
20260509001531 63 158 4.0 7.0 0.00 0.14 0.14 87 1005.6
20260509001030 63 357 3.0 8.0 0.04 0.14 0.14 87 1005.6
20260509000531 63 168 3.0 9.0 0.14 0.14 0.14 88 1005.8
20260509000031 63 179 4.0 9.0 0.14 0.14 0.14 88 1005.9
20260508235533 63 138 3.0 10.0 0.14 0.14 0.14 88 1005.6
20260508235031 63 357 3.0 10.0 0.14 0.14 0.14 87 1005.9
20260508234531 63 357 4.0 7.0 0.14 0.14 0.14 87 1005.9
20260508234030 63 135 3.0 5.0 0.14 0.14 0.14 86 1006.1
20260508233529 63 146 0.0 1.0 0.14 0.14 0.14 85 1005.9
20260508233029 63 146 0.0 8.0 0.14 0.14 0.14 85 1006.0
20260508232528 64 149 2.0 8.0 0.14 0.14 0.14 83 1005.8
20260508232033 65 216 2.0 15.0 0.14 0.14 0.14 79 1006.4
20260508231528 66 314 1.0 26.0 0.14 0.14 0.14 76 1006.5
20260508231029 70 357 12.0 28.0 0.09 0.09 0.09 67 1006.9
20260508230528 78 357 14.0 28.0 0.00 0.00 0.00 51 1006.7
20260508230039 80 199 2.0 6.0 0.00 0.00 0.00 53 1005.7
20260508225526 80 189 2.0 8.0 0.00 0.00 0.00 53 1005.4
20260508225028 80 357 3.0 7.0 0.00 0.00 0.00 52 1005.1
20260508224526 81 104 2.0 5.0 0.00 0.00 0.00 51 1005.0